Time,TemperatureF,DewpointF,PressureIn,WindDirection,WindDirectionDegrees,WindSpeedMPH,WindSpeedGustMPH,Humidity,HourlyPrecipIn,Conditions,Clouds,dailyrainin,SoftwareType,DateUTC
2013-09-04 00:10:00,54.6,53.2,29.96,SSW,209,0.0,0.0,95,0.00,,,0.00,Wunderground v.1.15,2013-09-04 07:10:00,
2013-09-04 01:10:00,52.8,51.1,29.96,SSW,209,0.0,0.0,94,0.00,,,0.00,Wunderground v.1.15,2013-09-04 08:10:00,
2013-09-04 01:15:00,52.4,50.7,29.96,SSW,209,0.0,0.0,94,0.00,,,0.00,Wunderground v.1.15,2013-09-04 08:15:00,
2013-09-04 01:20:00,52.3,50.9,29.96,SSW,209,0.0,0.0,95,0.00,,,0.00,Wunderground v.1.15,2013-09-04 08:20:00,
2013-09-04 01:25:00,53.6,52.8,29.96,SSW,209,0.0,0.0,97,0.00,,,0.00,Wunderground v.1.15,2013-09-04 08:25:00,
2013-09-04 01:35:00,53.2,51.5,29.96,SSW,209,0.0,0.0,94,0.00,,,0.00,Wunderground v.1.15,2013-09-04 08:35:00,
2013-09-04 01:40:00,52.4,50.7,29.96,SSW,209,0.0,0.0,94,0.00,,,0.00,Wunderground v.1.15,2013-09-04 08:40:00,
2013-09-04 01:45:00,52.0,50.6,29.97,SSW,209,0.0,0.0,95,0.00,,,0.00,Wunderground v.1.15,2013-09-04 08:45:00,
2013-09-04 01:50:00,52.3,51.2,29.97,SSW,209,0.0,0.0,96,0.00,,,0.00,Wunderground v.1.15,2013-09-04 08:50:00,
2013-09-04 01:55:00,52.8,52.0,29.97,SSW,209,0.0,0.0,97,0.00,,,0.00,Wunderground v.1.15,2013-09-04 08:55:00,
2013-09-04 02:05:00,52.8,51.7,29.97,SSW,209,0.0,0.0,96,0.00,,,0.00,Wunderground v.1.15,2013-09-04 09:05:00,
2013-09-04 02:10:00,52.3,50.9,29.97,SSW,209,0.0,0.0,95,0.00,,,0.00,Wunderground v.1.15,2013-09-04 09:10:00,
2013-09-04 02:15:00,51.8,50.4,29.97,SSW,209,0.0,0.0,95,0.00,,,0.00,Wunderground v.1.15,2013-09-04 09:15:00,
2013-09-04 02:20:00,51.5,50.1,29.97,SSW,209,0.0,0.0,95,0.00,,,0.00,Wunderground v.1.15,2013-09-04 09:20:00,
2013-09-04 02:25:00,51.4,50.3,29.97,SSW,209,0.0,0.0,96,0.00,,,0.00,Wunderground v.1.15,2013-09-04 09:25:00,
2013-09-04 02:35:00,52.2,51.4,29.97,SSW,209,0.0,0.0,97,0.00,,,0.00,Wunderground v.1.15,2013-09-04 09:35:00,
2013-09-04 02:40:00,51.7,50.6,29.97,SSW,209,0.0,0.0,96,0.00,,,0.00,Wunderground v.1.15,2013-09-04 09:40:00,
2013-09-04 02:45:00,51.1,49.7,29.97,SSW,209,0.0,0.0,95,0.00,,,0.00,Wunderground v.1.15,2013-09-04 09:45:00,
2013-09-04 02:55:00,51.6,51.1,29.97,SSW,209,0.0,0.0,98,0.00,,,0.00,Wunderground v.1.15,2013-09-04 09:55:00,
2013-09-04 03:00:00,52.1,51.6,29.97,SSW,209,0.0,0.0,98,0.00,,,0.00,Wunderground v.1.15,2013-09-04 10:00:00,
2013-09-04 03:05:00,52.2,51.7,29.96,SSW,209,0.0,0.0,98,0.00,,,0.00,Wunderground v.1.15,2013-09-04 10:05:00,
2013-09-04 03:25:00,51.3,50.5,29.98,SSW,209,0.0,0.0,97,0.00,,,0.00,Wunderground v.1.15,2013-09-04 10:25:00,
2013-09-04 03:30:00,51.4,50.9,29.98,SSW,209,0.0,0.0,98,0.00,,,0.00,Wunderground v.1.15,2013-09-04 10:30:00,
2013-09-04 03:35:00,50.9,49.8,29.98,SSW,209,0.0,0.0,96,0.00,,,0.00,Wunderground v.1.15,2013-09-04 10:35:00,
2013-09-04 03:45:00,50.2,49.1,29.98,SSW,209,0.0,0.0,96,0.00,,,0.00,Wunderground v.1.15,2013-09-04 10:45:00,
2013-09-04 03:50:00,50.2,49.4,29.98,SSW,209,0.0,0.0,97,0.00,,,0.00,Wunderground v.1.15,2013-09-04 10:50:00,
2013-09-04 03:55:00,50.5,49.7,29.97,SSW,209,0.0,0.0,97,0.00,,,0.00,Wunderground v.1.15,2013-09-04 10:55:00,
2013-09-04 04:00:00,50.5,49.7,29.97,SSW,209,0.0,0.0,97,0.00,,,0.00,Wunderground v.1.15,2013-09-04 11:00:00,
2013-09-04 04:10:00,50.1,49.3,29.97,SSW,209,0.0,0.0,97,0.00,,,0.00,Wunderground v.1.15,2013-09-04 11:10:00,
2013-09-04 04:15:00,50.0,49.2,29.97,SSW,209,0.0,0.0,97,0.00,,,0.00,Wunderground v.1.15,2013-09-04 11:15:00,
2013-09-04 04:20:00,49.7,48.9,29.97,SSW,209,0.0,0.0,97,0.00,,,0.00,Wunderground v.1.15,2013-09-04 11:20:00,
2013-09-04 04:25:00,49.9,49.1,29.97,SSW,209,0.0,0.0,97,0.00,,,0.00,Wunderground v.1.15,2013-09-04 11:25:00,
2013-09-04 04:30:00,50.1,49.6,29.97,SSW,209,0.0,0.0,98,0.00,,,0.00,Wunderground v.1.15,2013-09-04 11:30:00,
2013-09-04 04:40:00,50.1,49.6,29.97,SSW,209,0.0,0.0,98,0.00,,,0.00,Wunderground v.1.15,2013-09-04 11:40:00,
2013-09-04 04:45:00,50.2,49.7,29.97,SSW,209,0.0,0.0,98,0.00,,,0.00,Wunderground v.1.15,2013-09-04 11:45:00,
2013-09-04 04:50:00,49.9,49.4,29.97,SSW,209,0.0,0.0,98,0.00,,,0.00,Wunderground v.1.15,2013-09-04 11:50:00,
2013-09-04 04:55:00,49.9,49.4,29.97,SSW,209,0.0,0.0,98,0.00,,,0.00,Wunderground v.1.15,2013-09-04 11:55:00,
2013-09-04 05:00:00,49.8,49.3,29.98,SSW,209,0.0,0.0,98,0.00,,,0.00,Wunderground v.1.15,2013-09-04 12:00:00,
2013-09-04 05:10:00,47.8,46.4,29.99,SSW,209,0.0,0.0,95,0.00,,,0.00,Wunderground v.1.15,2013-09-04 12:10:00,
2013-09-04 05:15:00,46.9,45.5,29.98,SSW,209,0.0,0.0,95,0.00,,,0.00,Wunderground v.1.15,2013-09-04 12:15:00,
2013-09-04 05:20:00,46.8,45.7,29.98,SSW,209,0.0,0.0,96,0.00,,,0.00,Wunderground v.1.15,2013-09-04 12:20:00,
2013-09-04 05:25:00,47.2,46.4,29.99,SSW,209,0.0,0.0,97,0.00,,,0.00,Wunderground v.1.15,2013-09-04 12:25:00,
2013-09-04 05:30:00,47.4,46.9,29.98,SSW,209,0.0,0.0,98,0.00,,,0.00,Wunderground v.1.15,2013-09-04 12:30:00,
2013-09-04 05:35:00,47.1,46.3,29.99,SSW,209,0.0,0.0,97,0.00,,,0.00,Wunderground v.1.15,2013-09-04 12:35:00,
2013-09-04 05:40:00,47.2,46.4,29.99,SSW,209,0.0,0.0,97,0.00,,,0.00,Wunderground v.1.15,2013-09-04 12:40:00,
2013-09-04 05:50:00,46.8,46.0,29.99,SSW,209,0.0,0.0,97,0.00,,,0.00,Wunderground v.1.15,2013-09-04 12:50:00,
2013-09-04 05:55:00,46.9,46.4,29.99,SSW,209,0.0,0.0,98,0.00,,,0.00,Wunderground v.1.15,2013-09-04 12:55:00,
2013-09-04 06:00:00,46.9,46.4,29.99,SSW,209,0.0,0.0,98,0.00,,,0.00,Wunderground v.1.15,2013-09-04 13:00:00,
2013-09-04 06:05:00,46.9,46.4,29.99,SSW,209,0.0,0.0,98,0.00,,,0.00,Wunderground v.1.15,2013-09-04 13:05:00,
2013-09-04 06:10:00,47.5,47.0,29.99,SSW,209,0.0,0.0,98,0.00,,,0.00,Wunderground v.1.15,2013-09-04 13:10:00,
2013-09-04 06:15:00,47.4,46.9,29.99,SSW,209,0.0,0.0,98,0.00,,,0.00,Wunderground v.1.15,2013-09-04 13:15:00,
2013-09-04 06:25:00,46.6,45.8,29.99,SSW,209,0.0,0.0,97,0.00,,,0.00,Wunderground v.1.15,2013-09-04 13:25:00,
2013-09-04 06:30:00,46.4,45.6,29.99,SSW,209,0.0,0.0,97,0.00,,,0.00,Wunderground v.1.15,2013-09-04 13:30:00,
2013-09-04 06:35:00,46.5,46.0,29.99,SSW,209,0.0,0.0,98,0.00,,,0.00,Wunderground v.1.15,2013-09-04 13:35:00,
2013-09-04 06:40:00,46.5,46.0,30.00,SSW,209,0.0,0.0,98,0.00,,,0.00,Wunderground v.1.15,2013-09-04 13:40:00,
2013-09-04 06:45:00,46.3,45.8,30.00,SSW,209,0.0,0.0,98,0.00,,,0.00,Wunderground v.1.15,2013-09-04 13:45:00,
2013-09-04 06:50:00,46.2,45.7,30.00,SSW,209,0.0,0.0,98,0.00,,,0.00,Wunderground v.1.15,2013-09-04 13:50:00,
2013-09-04 06:55:00,46.9,46.4,30.00,SSW,209,0.0,0.0,98,0.00,,,0.00,Wunderground v.1.15,2013-09-04 13:55:00,
2013-09-04 07:05:00,47.3,46.8,30.00,SSW,209,0.0,0.0,98,0.00,,,0.00,Wunderground v.1.15,2013-09-04 14:05:00,
2013-09-04 07:10:00,47.0,46.5,30.00,SSW,209,0.0,0.0,98,0.00,,,0.00,Wunderground v.1.15,2013-09-04 14:10:00,
2013-09-04 07:15:00,46.6,46.1,30.01,SSW,209,0.0,0.0,98,0.00,,,0.00,Wunderground v.1.15,2013-09-04 14:15:00,
2013-09-04 07:20:00,46.4,45.9,30.01,SSW,209,0.0,0.0,98,0.00,,,0.00,Wunderground v.1.15,2013-09-04 14:20:00,
2013-09-04 07:25:00,46.5,46.0,30.01,SSW,209,0.0,0.0,98,0.00,,,0.00,Wunderground v.1.15,2013-09-04 14:25:00,
2013-09-04 07:30:00,46.6,46.1,30.01,SSW,209,0.0,0.0,98,0.00,,,0.00,Wunderground v.1.15,2013-09-04 14:30:00,
2013-09-04 07:40:00,47.2,46.7,30.01,SSW,209,0.0,0.0,98,0.00,,,0.00,Wunderground v.1.15,2013-09-04 14:40:00,
2013-09-04 07:45:00,47.6,47.1,30.01,SSW,209,0.0,0.0,98,0.00,,,0.00,Wunderground v.1.15,2013-09-04 14:45:00,
2013-09-04 07:50:00,48.1,47.8,30.01,SSW,209,0.0,0.0,99,0.00,,,0.00,Wunderground v.1.15,2013-09-04 14:50:00,
2013-09-04 07:55:00,48.7,48.4,30.01,SSW,209,0.0,0.0,99,0.00,,,0.00,Wunderground v.1.15,2013-09-04 14:55:00,
2013-09-04 08:00:00,49.2,48.9,30.01,SSW,205,0.0,0.0,99,0.00,,,0.00,Wunderground v.1.15,2013-09-04 15:00:00,
2013-09-04 08:10:00,49.6,49.3,30.02,SSW,193,0.0,0.0,99,0.00,,,0.00,Wunderground v.1.15,2013-09-04 15:10:00,
2013-09-04 08:15:00,50.3,50.0,30.02,SSE,163,0.0,0.0,99,0.00,,,0.00,Wunderground v.1.15,2013-09-04 15:15:00,
2013-09-04 08:20:00,50.9,50.6,30.02,SE,133,0.0,0.0,99,0.00,,,0.00,Wunderground v.1.15,2013-09-04 15:20:00,
2013-09-04 08:25:00,52.1,51.8,30.02,SE,133,0.0,0.0,99,0.00,,,0.00,Wunderground v.1.15,2013-09-04 15:25:00,
2013-09-04 08:30:00,53.3,53.0,30.02,SE,131,0.0,0.0,99,0.00,,,0.00,Wunderground v.1.15,2013-09-04 15:30:00,
2013-09-04 08:35:00,53.9,53.6,30.02,SE,131,0.0,0.0,99,0.00,,,0.00,Wunderground v.1.15,2013-09-04 15:35:00,
2013-09-04 08:45:00,54.4,54.1,30.02,East,91,0.0,1.0,99,0.00,,,0.00,Wunderground v.1.15,2013-09-04 15:45:00,
2013-09-04 08:50:00,55.5,55.2,30.02,East,91,0.0,0.0,99,0.00,,,0.00,Wunderground v.1.15,2013-09-04 15:50:00,
2013-09-04 08:55:00,56.6,56.3,30.02,East,91,0.0,0.0,99,0.00,,,0.00,Wunderground v.1.15,2013-09-04 15:55:00,
2013-09-04 09:00:00,57.7,57.4,30.02,East,96,0.0,0.0,99,0.00,,,0.00,Wunderground v.1.15,2013-09-04 16:00:00,
2013-09-04 09:05:00,58.5,58.2,30.02,East,96,0.0,0.0,99,0.00,,,0.00,Wunderground v.1.15,2013-09-04 16:05:00,
2013-09-04 09:10:00,59.6,59.0,30.02,East,94,0.0,0.0,98,0.00,,,0.00,Wunderground v.1.15,2013-09-04 16:10:00,
2013-09-04 09:15:00,60.7,59.0,30.02,ESE,105,0.0,0.0,94,0.00,,,0.00,Wunderground v.1.15,2013-09-04 16:15:00,
2013-09-04 09:25:00,62.6,59.0,30.02,East,83,0.0,0.0,88,0.00,,,0.00,Wunderground v.1.15,2013-09-04 16:25:00,
2013-09-04 09:30:00,63.6,59.0,30.02,East,85,0.0,0.0,85,0.00,,,0.00,Wunderground v.1.15,2013-09-04 16:30:00,
2013-09-04 09:35:00,64.3,59.0,30.02,SE,132,1.0,1.0,83,0.00,,,0.00,Wunderground v.1.15,2013-09-04 16:35:00,
2013-09-04 09:40:00,65.0,59.0,30.02,SSW,200,1.0,1.0,81,0.00,,,0.00,Wunderground v.1.15,2013-09-04 16:40:00,
2013-09-04 09:45:00,65.5,58.8,30.02,SSW,202,2.0,4.0,79,0.00,,,0.00,Wunderground v.1.15,2013-09-04 16:45:00,
2013-09-04 09:50:00,66.0,58.9,30.02,SSW,202,3.0,3.0,78,0.00,,,0.00,Wunderground v.1.15,2013-09-04 16:50:00,
2013-09-04 10:00:00,67.0,58.8,30.02,SW,224,2.0,5.0,75,0.00,,,0.00,Wunderground v.1.15,2013-09-04 17:00:00,
2013-09-04 10:10:00,68.3,58.9,30.02,SSW,205,2.0,2.0,72,0.00,,,0.00,Wunderground v.1.15,2013-09-04 17:10:00,
2013-09-04 10:15:00,68.9,58.3,30.02,SSW,193,3.0,8.0,69,0.00,,,0.00,Wunderground v.1.15,2013-09-04 17:15:00,
2013-09-04 10:20:00,69.2,58.6,30.02,SSW,195,5.0,5.0,69,0.00,,,0.00,Wunderground v.1.15,2013-09-04 17:20:00,
2013-09-04 10:25:00,69.6,59.0,30.02,SSW,195,5.0,5.0,69,0.00,,,0.00,Wunderground v.1.15,2013-09-04 17:25:00,
2013-09-04 10:30:00,70.5,59.0,30.02,SW,232,4.0,4.0,67,0.00,,,0.00,Wunderground v.1.15,2013-09-04 17:30:00,
2013-09-04 10:35:00,70.7,59.2,30.02,SSW,194,3.0,10.0,67,0.00,,,0.00,Wunderground v.1.15,2013-09-04 17:35:00,
2013-09-04 10:45:00,71.2,58.4,30.02,SSW,199,6.0,8.0,64,0.00,,,0.00,Wunderground v.1.15,2013-09-04 17:45:00,
2013-09-04 10:50:00,71.4,58.6,30.02,South,191,7.0,7.0,64,0.00,,,0.00,Wunderground v.1.15,2013-09-04 17:50:00,
2013-09-04 10:55:00,72.1,58.8,30.02,SSW,208,6.0,11.0,63,0.00,,,0.00,Wunderground v.1.15,2013-09-04 17:55:00,
2013-09-04 11:00:00,72.8,58.6,30.01,SSE,153,5.0,5.0,61,0.00,,,0.00,Wunderground v.1.15,2013-09-04 18:00:00,
2013-09-04 11:05:00,73.3,58.1,30.01,South,174,6.0,6.0,59,0.00,,,0.00,Wunderground v.1.15,2013-09-04 18:05:00,
2013-09-04 11:10:00,74.0,58.3,30.01,SSE,159,7.0,8.0,58,0.00,,,0.00,Wunderground v.1.15,2013-09-04 18:10:00,
2013-09-04 11:15:00,73.4,58.7,30.01,SSE,159,8.0,8.0,60,0.00,,,0.00,Wunderground v.1.15,2013-09-04 18:15:00,
2013-09-04 11:25:00,73.0,59.2,30.01,South,191,8.0,14.0,62,0.00,,,0.00,Wunderground v.1.15,2013-09-04 18:25:00,
2013-09-04 11:30:00,72.9,59.6,30.02,SSW,204,9.0,12.0,63,0.00,,,0.00,Wunderground v.1.15,2013-09-04 18:30:00,
2013-09-04 11:35:00,72.6,60.2,30.02,SW,214,10.0,12.0,65,0.00,,,0.00,Wunderground v.1.15,2013-09-04 18:35:00,
2013-09-04 11:40:00,72.5,60.1,30.02,SW,216,11.0,11.0,65,0.00,,,0.00,Wunderground v.1.15,2013-09-04 18:40:00,
2013-09-04 11:45:00,73.2,59.8,30.02,SSW,200,11.0,16.0,63,0.00,,,0.00,Wunderground v.1.15,2013-09-04 18:45:00,
2013-09-04 11:50:00,73.0,58.8,30.02,SSW,200,12.0,12.0,61,0.00,,,0.00,Wunderground v.1.15,2013-09-04 18:50:00,
2013-09-04 12:00:00,73.5,59.2,30.01,SSW,192,12.0,12.0,61,0.00,,,0.00,Wunderground v.1.15,2013-09-04 19:00:00,
2013-09-04 12:05:00,73.0,59.7,30.01,SSW,207,14.0,14.0,63,0.00,,,0.00,Wunderground v.1.15,2013-09-04 19:05:00,
2013-09-04 12:10:00,73.6,59.8,30.01,SW,215,13.0,13.0,62,0.00,,,0.00,Wunderground v.1.15,2013-09-04 19:10:00,
2013-09-04 12:15:00,73.9,59.6,30.01,SW,221,12.0,13.0,61,0.00,,,0.00,Wunderground v.1.15,2013-09-04 19:15:00,
2013-09-04 12:20:00,73.5,59.2,30.01,SSW,202,11.0,11.0,61,0.00,,,0.00,Wunderground v.1.15,2013-09-04 19:20:00,
2013-09-04 12:30:00,74.2,58.0,30.01,SSW,211,11.0,11.0,57,0.00,,,0.00,Wunderground v.1.15,2013-09-04 19:30:00,
2013-09-04 12:35:00,73.8,58.6,30.00,SSW,213,12.0,15.0,59,0.00,,,0.00,Wunderground v.1.15,2013-09-04 19:35:00,
2013-09-04 12:40:00,73.4,58.7,30.00,SW,217,14.0,14.0,60,0.00,,,0.00,Wunderground v.1.15,2013-09-04 19:40:00,
2013-09-04 12:45:00,73.6,59.3,30.00,SSW,213,14.0,14.0,61,0.00,,,0.00,Wunderground v.1.15,2013-09-04 19:45:00,
2013-09-04 12:50:00,73.5,58.8,30.00,SW,214,13.0,18.0,60,0.00,,,0.00,Wunderground v.1.15,2013-09-04 19:50:00,
2013-09-04 12:55:00,73.7,58.9,30.01,SW,219,13.0,18.0,60,0.00,,,0.00,Wunderground v.1.15,2013-09-04 19:55:00,
2013-09-04 13:05:00,73.7,59.4,30.00,SW,236,13.0,13.0,61,0.00,,,0.00,Wunderground v.1.15,2013-09-04 20:05:00,
2013-09-04 13:10:00,74.3,59.0,30.00,WSW,244,12.0,13.0,59,0.00,,,0.00,Wunderground v.1.15,2013-09-04 20:10:00,
2013-09-04 13:15:00,74.4,58.2,30.00,SSW,213,13.0,13.0,57,0.00,,,0.00,Wunderground v.1.15,2013-09-04 20:15:00,
2013-09-04 13:20:00,74.0,58.8,30.00,SSW,202,14.0,14.0,59,0.00,,,0.00,Wunderground v.1.15,2013-09-04 20:20:00,
2013-09-04 13:30:00,74.4,57.7,30.00,SW,218,12.0,12.0,56,0.00,,,0.00,Wunderground v.1.15,2013-09-04 20:30:00,
2013-09-04 13:35:00,74.2,58.0,30.00,SW,215,14.0,14.0,57,0.00,,,0.00,Wunderground v.1.15,2013-09-04 20:35:00,
2013-09-04 13:40:00,74.6,58.8,30.00,SSW,206,14.0,16.0,58,0.00,,,0.00,Wunderground v.1.15,2013-09-04 20:40:00,
2013-09-04 13:45:00,73.8,58.1,30.00,SW,223,14.0,16.0,58,0.00,,,0.00,Wunderground v.1.15,2013-09-04 20:45:00,
2013-09-04 13:50:00,74.1,59.3,30.00,SW,217,14.0,16.0,60,0.00,,,0.00,Wunderground v.1.15,2013-09-04 20:50:00,
2013-09-04 14:00:00,74.4,59.1,30.00,South,190,14.0,14.0,59,0.00,,,0.00,Wunderground v.1.15,2013-09-04 21:00:00,
2013-09-04 14:05:00,74.3,59.0,30.00,WSW,239,14.0,20.0,59,0.00,,,0.00,Wunderground v.1.15,2013-09-04 21:05:00,
2013-09-04 14:10:00,74.7,58.0,29.99,SSW,211,14.0,20.0,56,0.00,,,0.00,Wunderground v.1.15,2013-09-04 21:10:00,
2013-09-04 14:15:00,74.5,58.8,29.99,SW,220,13.0,20.0,58,0.00,,,0.00,Wunderground v.1.15,2013-09-04 21:15:00,
2013-09-04 14:20:00,74.9,59.1,29.99,SW,216,13.0,13.0,58,0.00,,,0.00,Wunderground v.1.15,2013-09-04 21:20:00,
2013-09-04 14:30:00,74.8,59.0,29.99,SW,232,13.0,13.0,58,0.00,,,0.00,Wunderground v.1.15,2013-09-04 21:30:00,
2013-09-04 14:35:00,74.9,58.6,29.98,SW,215,13.0,13.0,57,0.00,,,0.00,Wunderground v.1.15,2013-09-04 21:35:00,
2013-09-04 14:40:00,74.8,60.0,29.98,SW,215,13.0,16.0,60,0.00,,,0.00,Wunderground v.1.15,2013-09-04 21:40:00,
2013-09-04 14:45:00,73.9,59.6,29.98,SSW,207,13.0,17.0,61,0.00,,,0.00,Wunderground v.1.15,2013-09-04 21:45:00,
2013-09-04 14:50:00,74.3,59.5,29.98,SSW,200,14.0,14.0,60,0.00,,,0.00,Wunderground v.1.15,2013-09-04 21:50:00,
2013-09-04 14:55:00,74.9,60.1,29.98,SSW,211,13.0,14.0,60,0.00,,,0.00,Wunderground v.1.15,2013-09-04 21:55:00,
2013-09-04 15:05:00,74.3,59.5,29.97,SSW,194,13.0,19.0,60,0.00,,,0.00,Wunderground v.1.15,2013-09-04 22:05:00,
2013-09-04 15:10:00,73.9,58.7,29.97,SW,217,14.0,17.0,59,0.00,,,0.00,Wunderground v.1.15,2013-09-04 22:10:00,
2013-09-04 15:15:00,73.4,58.7,29.97,WSW,242,15.0,17.0,60,0.00,,,0.00,Wunderground v.1.15,2013-09-04 22:15:00,
2013-09-04 15:20:00,73.5,58.8,29.97,WSW,242,14.0,14.0,60,0.00,,,0.00,Wunderground v.1.15,2013-09-04 22:20:00,
2013-09-04 15:25:00,73.5,58.3,29.97,SW,227,13.0,14.0,59,0.00,,,0.00,Wunderground v.1.15,2013-09-04 22:25:00,
2013-09-04 15:35:00,73.5,58.3,29.97,SW,217,14.0,17.0,59,0.00,,,0.00,Wunderground v.1.15,2013-09-04 22:35:00,
2013-09-04 15:40:00,73.5,58.3,29.97,SW,230,14.0,20.0,59,0.00,,,0.00,Wunderground v.1.15,2013-09-04 22:40:00,
2013-09-04 15:45:00,74.3,59.0,29.97,WSW,244,14.0,20.0,59,0.00,,,0.00,Wunderground v.1.15,2013-09-04 22:45:00,
2013-09-04 15:50:00,74.3,59.0,29.97,SSW,205,14.0,16.0,59,0.00,,,0.00,Wunderground v.1.15,2013-09-04 22:50:00,
2013-09-04 15:55:00,74.2,58.9,29.96,SSW,204,14.0,19.0,59,0.00,,,0.00,Wunderground v.1.15,2013-09-04 22:55:00,
2013-09-04 16:00:00,73.5,58.8,29.96,SW,219,15.0,15.0,60,0.00,,,0.00,Wunderground v.1.15,2013-09-04 23:00:00,
2013-09-04 16:10:00,73.7,58.5,29.95,SW,221,13.0,16.0,59,0.00,,,0.00,Wunderground v.1.15,2013-09-04 23:10:00,
2013-09-04 16:15:00,73.3,59.0,29.95,WSW,242,13.0,16.0,61,0.00,,,0.00,Wunderground v.1.15,2013-09-04 23:15:00,
2013-09-04 16:20:00,74.0,59.2,29.95,SSW,199,13.0,13.0,60,0.00,,,0.00,Wunderground v.1.15,2013-09-04 23:20:00,
2013-09-04 16:25:00,73.7,59.4,29.95,SW,224,12.0,13.0,61,0.00,,,0.00,Wunderground v.1.15,2013-09-04 23:25:00,
2013-09-04 16:30:00,72.8,59.5,29.94,SSW,204,14.0,14.0,63,0.00,,,0.00,Wunderground v.1.15,2013-09-04 23:30:00,
2013-09-04 16:35:00,72.6,59.7,29.94,SSW,202,15.0,16.0,64,0.00,,,0.00,Wunderground v.1.15,2013-09-04 23:35:00,
2013-09-04 16:40:00,72.5,59.6,29.94,SSW,207,14.0,14.0,64,0.00,,,0.00,Wunderground v.1.15,2013-09-04 23:40:00,
2013-09-04 16:50:00,71.9,59.5,29.94,SSW,198,14.0,14.0,65,0.00,,,0.00,Wunderground v.1.15,2013-09-04 23:50:00,
2013-09-04 16:55:00,71.9,59.5,29.94,SSW,209,14.0,14.0,65,0.00,,,0.00,Wunderground v.1.15,2013-09-04 23:55:00,
2013-09-04 17:00:00,71.6,59.6,29.94,SW,221,15.0,16.0,66,0.00,,,0.00,Wunderground v.1.15,2013-09-05 00:00:00,
2013-09-04 17:05:00,71.8,59.4,29.94,SW,216,14.0,16.0,65,0.00,,,0.00,Wunderground v.1.15,2013-09-05 00:05:00,
2013-09-04 17:10:00,72.1,59.7,29.94,SSW,209,12.0,17.0,65,0.00,,,0.00,Wunderground v.1.15,2013-09-05 00:10:00,
2013-09-04 17:15:00,71.5,59.5,29.94,SSW,210,12.0,17.0,66,0.00,,,0.00,Wunderground v.1.15,2013-09-05 00:15:00,
2013-09-04 17:25:00,71.7,59.3,29.94,WSW,240,11.0,15.0,65,0.00,,,0.00,Wunderground v.1.15,2013-09-05 00:25:00,
2013-09-04 17:30:00,71.5,59.1,29.94,WSW,241,11.0,12.0,65,0.00,,,0.00,Wunderground v.1.15,2013-09-05 00:30:00,
2013-09-04 17:35:00,71.7,58.9,29.93,SSW,207,11.0,16.0,64,0.00,,,0.00,Wunderground v.1.15,2013-09-05 00:35:00,
2013-09-04 17:40:00,71.5,58.7,29.93,SW,219,11.0,15.0,64,0.00,,,0.00,Wunderground v.1.15,2013-09-05 00:40:00,
2013-09-04 17:45:00,71.1,58.7,29.93,SSW,211,12.0,15.0,65,0.00,,,0.00,Wunderground v.1.15,2013-09-05 00:45:00,
2013-09-04 17:50:00,70.9,59.0,29.93,SSW,205,12.0,12.0,66,0.00,,,0.00,Wunderground v.1.15,2013-09-05 00:50:00,
2013-09-04 18:00:00,70.6,58.7,29.93,SSW,210,10.0,10.0,66,0.00,,,0.00,Wunderground v.1.15,2013-09-05 01:00:00,
2013-09-04 18:05:00,70.4,58.9,29.92,SW,221,10.0,10.0,67,0.00,,,0.00,Wunderground v.1.15,2013-09-05 01:05:00,
2013-09-04 18:10:00,70.3,59.2,29.92,SSW,206,10.0,10.0,68,0.00,,,0.00,Wunderground v.1.15,2013-09-05 01:10:00,
2013-09-04 18:15:00,69.9,58.9,29.92,SSW,211,11.0,15.0,68,0.00,,,0.00,Wunderground v.1.15,2013-09-05 01:15:00,
2013-09-04 18:20:00,69.5,58.9,29.92,SSW,213,11.0,13.0,69,0.00,,,0.00,Wunderground v.1.15,2013-09-05 01:20:00,
2013-09-04 18:30:00,68.7,58.9,29.92,SSW,196,11.0,11.0,71,0.00,,,0.00,Wunderground v.1.15,2013-09-05 01:30:00,
2013-09-04 18:35:00,68.4,59.0,29.92,South,190,10.0,16.0,72,0.00,,,0.00,Wunderground v.1.15,2013-09-05 01:35:00,
2013-09-04 18:40:00,67.9,58.9,29.92,South,191,10.0,10.0,73,0.00,,,0.00,Wunderground v.1.15,2013-09-05 01:40:00,
2013-09-04 18:45:00,67.6,59.0,29.92,SW,215,10.0,12.0,74,0.00,,,0.00,Wunderground v.1.15,2013-09-05 01:45:00,
2013-09-04 18:50:00,67.2,58.6,29.92,SSW,209,10.0,10.0,74,0.00,,,0.00,Wunderground v.1.15,2013-09-05 01:50:00,
2013-09-04 18:55:00,67.0,58.8,29.92,SSW,209,10.0,10.0,75,0.00,,,0.00,Wunderground v.1.15,2013-09-05 01:55:00,
2013-09-04 19:05:00,66.6,58.4,29.92,SSW,207,9.0,12.0,75,0.00,,,0.00,Wunderground v.1.15,2013-09-05 02:05:00,
2013-09-04 19:10:00,66.2,58.0,29.91,SSW,211,9.0,9.0,75,0.00,,,0.00,Wunderground v.1.15,2013-09-05 02:10:00,
2013-09-04 19:15:00,65.7,57.9,29.92,SSW,201,8.0,9.0,76,0.00,,,0.00,Wunderground v.1.15,2013-09-05 02:15:00,
2013-09-04 19:20:00,65.1,57.7,29.91,SSW,202,8.0,11.0,77,0.00,,,0.00,Wunderground v.1.15,2013-09-05 02:20:00,
2013-09-04 19:25:00,64.7,57.7,29.92,SSW,205,8.0,11.0,78,0.00,,,0.00,Wunderground v.1.15,2013-09-05 02:25:00,
2013-09-04 19:35:00,64.0,57.4,29.92,SSW,211,7.0,7.0,79,0.00,,,0.00,Wunderground v.1.15,2013-09-05 02:35:00,
2013-09-04 19:40:00,63.6,57.3,29.92,SW,214,6.0,6.0,80,0.00,,,0.00,Wunderground v.1.15,2013-09-05 02:40:00,
2013-09-04 19:45:00,63.3,57.4,29.92,SSW,212,6.0,6.0,81,0.00,,,0.00,Wunderground v.1.15,2013-09-05 02:45:00,
2013-09-04 19:50:00,63.1,57.2,29.92,SSW,212,6.0,6.0,81,0.00,,,0.00,Wunderground v.1.15,2013-09-05 02:50:00,
2013-09-04 19:55:00,63.1,57.2,29.92,SSW,211,5.0,6.0,81,0.00,,,0.00,Wunderground v.1.15,2013-09-05 02:55:00,
2013-09-04 20:05:00,62.7,56.8,29.92,SSW,198,2.0,3.0,81,0.00,,,0.00,Wunderground v.1.15,2013-09-05 03:05:00,
2013-09-04 20:10:00,62.4,56.8,29.92,South,191,1.0,3.0,82,0.00,,,0.00,Wunderground v.1.15,2013-09-05 03:10:00,
2013-09-04 20:15:00,62.1,56.5,29.93,SSW,194,1.0,5.0,82,0.00,,,0.00,Wunderground v.1.15,2013-09-05 03:15:00,
2013-09-04 20:20:00,62.3,56.7,29.93,SW,229,3.0,5.0,82,0.00,,,0.00,Wunderground v.1.15,2013-09-05 03:20:00,
2013-09-04 20:25:00,62.4,56.8,29.93,SW,229,3.0,5.0,82,0.00,,,0.00,Wunderground v.1.15,2013-09-05 03:25:00,
2013-09-04 20:30:00,62.2,56.6,29.93,SW,223,3.0,3.0,82,0.00,,,0.00,Wunderground v.1.15,2013-09-05 03:30:00,
2013-09-04 20:40:00,61.9,56.7,29.93,SSW,213,5.0,5.0,83,0.00,,,0.00,Wunderground v.1.15,2013-09-05 03:40:00,
2013-09-04 20:45:00,61.9,56.7,29.93,SSW,213,5.0,5.0,83,0.00,,,0.00,Wunderground v.1.15,2013-09-05 03:45:00,
2013-09-04 20:50:00,61.7,56.5,29.93,SSW,213,4.0,4.0,83,0.00,,,0.00,Wunderground v.1.15,2013-09-05 03:50:00,
2013-09-04 20:55:00,61.4,56.5,29.94,SSW,213,2.0,4.0,84,0.00,,,0.00,Wunderground v.1.15,2013-09-05 03:55:00,
2013-09-04 21:00:00,61.1,56.2,29.94,SSW,213,2.0,3.0,84,0.00,,,0.00,Wunderground v.1.15,2013-09-05 04:00:00,
2013-09-04 21:05:00,60.9,56.4,29.94,SSW,213,2.0,3.0,85,0.00,,,0.00,Wunderground v.1.15,2013-09-05 04:05:00,
2013-09-04 21:15:00,60.5,56.0,29.94,SSW,213,0.0,1.0,85,0.00,,,0.00,Wunderground v.1.15,2013-09-05 04:15:00,
2013-09-04 21:20:00,60.2,56.0,29.94,SSW,213,0.0,0.0,86,0.00,,,0.00,Wunderground v.1.15,2013-09-05 04:20:00,
2013-09-04 21:25:00,60.3,56.1,29.94,SSW,213,0.0,0.0,86,0.00,,,0.00,Wunderground v.1.15,2013-09-05 04:25:00,
2013-09-04 21:35:00,59.9,55.4,29.94,SSW,213,0.0,0.0,85,0.00,,,0.00,Wunderground v.1.15,2013-09-05 04:35:00,
2013-09-04 21:40:00,59.7,55.5,29.94,SSW,213,0.0,0.0,86,0.00,,,0.00,Wunderground v.1.15,2013-09-05 04:40:00,
2013-09-04 21:45:00,59.5,55.3,29.94,SSW,213,0.0,0.0,86,0.00,,,0.00,Wunderground v.1.15,2013-09-05 04:45:00,
2013-09-04 21:50:00,59.2,55.0,29.94,SSW,213,0.0,0.0,86,0.00,,,0.00,Wunderground v.1.15,2013-09-05 04:50:00,
2013-09-04 21:55:00,58.9,55.0,29.94,SSW,213,0.0,0.0,87,0.00,,,0.00,Wunderground v.1.15,2013-09-05 04:55:00,
2013-09-04 22:00:00,58.8,55.3,29.94,SSW,213,0.0,0.0,88,0.00,,,0.00,Wunderground v.1.15,2013-09-05 05:00:00,
2013-09-04 22:05:00,58.7,55.2,29.94,SSW,213,0.0,0.0,88,0.00,,,0.00,Wunderground v.1.15,2013-09-05 05:05:00,
2013-09-04 22:10:00,58.6,55.1,29.95,SSW,213,0.0,0.0,88,0.00,,,0.00,Wunderground v.1.15,2013-09-05 05:10:00,
2013-09-04 22:15:00,58.5,55.3,29.95,SSW,213,0.0,0.0,89,0.00,,,0.00,Wunderground v.1.15,2013-09-05 05:15:00,
2013-09-04 22:20:00,58.3,54.8,29.95,SSW,213,0.0,0.0,88,0.00,,,0.00,Wunderground v.1.15,2013-09-05 05:20:00,
2013-09-04 22:25:00,58.0,54.5,29.95,SSW,213,0.0,0.0,88,0.00,,,0.00,Wunderground v.1.15,2013-09-05 05:25:00,
2013-09-04 22:30:00,57.6,53.8,29.94,SSW,213,0.0,0.0,87,0.00,,,0.00,Wunderground v.1.15,2013-09-05 05:30:00,
2013-09-04 22:35:00,57.3,54.4,29.95,SSW,213,0.0,0.0,90,0.00,,,0.00,Wunderground v.1.15,2013-09-05 05:35:00,
2013-09-04 22:45:00,56.8,53.3,29.95,SSW,213,0.0,0.0,88,0.00,,,0.00,Wunderground v.1.15,2013-09-05 05:45:00,
2013-09-04 22:50:00,56.4,52.9,29.96,SSW,213,0.0,0.0,88,0.00,,,0.00,Wunderground v.1.15,2013-09-05 05:50:00,
2013-09-04 22:55:00,56.1,53.8,29.95,SSW,213,0.0,0.0,92,0.00,,,0.00,Wunderground v.1.15,2013-09-05 05:55:00,
2013-09-04 23:00:00,56.5,54.5,29.96,SSW,213,0.0,0.0,93,0.00,,,0.00,Wunderground v.1.15,2013-09-05 06:00:00,
2013-09-04 23:05:00,56.9,54.9,29.96,SSW,213,0.0,0.0,93,0.00,,,0.00,Wunderground v.1.15,2013-09-05 06:05:00,
2013-09-04 23:15:00,55.7,52.5,29.96,SSW,213,0.0,0.0,89,0.00,,,0.00,Wunderground v.1.15,2013-09-05 06:15:00,
2013-09-04 23:20:00,55.3,52.4,29.96,SSW,213,0.0,0.0,90,0.00,,,0.00,Wunderground v.1.15,2013-09-05 06:20:00,
2013-09-04 23:25:00,55.0,52.4,29.96,SSW,213,0.0,0.0,91,0.00,,,0.00,Wunderground v.1.15,2013-09-05 06:25:00,
2013-09-04 23:30:00,54.9,52.6,29.96,SSW,213,0.0,0.0,92,0.00,,,0.00,Wunderground v.1.15,2013-09-05 06:30:00,
2013-09-04 23:35:00,54.9,52.9,29.96,SSW,213,0.0,0.0,93,0.00,,,0.00,Wunderground v.1.15,2013-09-05 06:35:00,
2013-09-04 23:45:00,54.9,52.6,29.96,SSW,213,0.0,0.0,92,0.00,,,0.00,Wunderground v.1.15,2013-09-05 06:45:00,
2013-09-04 23:50:00,54.5,52.2,29.95,SSW,213,0.0,0.0,92,0.00,,,0.00,Wunderground v.1.15,2013-09-05 06:50:00,
2013-09-04 23:55:00,54.2,51.9,29.96,SSW,213,0.0,0.0,92,0.00,,,0.00,Wunderground v.1.15,2013-09-05 06:55:00,